Tracking 29892 objects as of 21-Nov-2024
HD Live streaming from Space Station
objects crossing your sky now

STARLINK-6280

Track STARLINK-6280 now!
10-day predictions
STARLINK-6280 is classified as:


NORAD ID: 56531
Int'l Code: 2023-065AE
Perigee: 565.4 km
Apogee: 567.1 km
Inclination: 43.0 °
Period: 95.8 minutes
Semi major axis: 6937 km
RCS: Unknown
Launch date: May 14, 2023
Source: United States (US)
Launch site: AIR FORCE EASTERN TEST RANGE (AFETR)
Your satellite tracking list
Your tracking list is empty




NASA's NSSDC Master Catalog

Two Line Element Set (TLE):
1 56531U 23065AE  24325.84848434  .00002185  00000-0  17676-3 0  9991
2 56531  43.0048 252.3114 0001221 278.7489  81.3215 15.02538330 85496
Source of the keplerian elements: AFSPC